[[{"header":{"parameterUnit":"m.s-1","parameterCategory":1,"la1":30.2991,"la2":30.254,"lo1":-89.0895,"lo2":-89.0444,"dy":0.0017,"dx":0.0017,"nx":28,"ny":28,"refTime":"2023-10-04T03:00:00:Z","depth":0,"parameterNumber":2,"parameterNumberName":"U-component_of_WINDS"},"data":[0,0,0,0,0,0,0,0,0,0,0,0,0,0,0,0,0,0,0,0,0,0,0,0,0,0,0,0,0,0,0,0,0,0,0,0,0,0,0,0,0,0,0,0,0,0,0,0,0,0,0,0,0,0,0,0,0,0,-3.4113,-3.4114,0,-3.4173,-3.4174,-3.4175,-3.4102,-3.4099,-3.4097,-3.4094,-3.4161,-3.4165,-3.4169,0,0,0,0,0,0,0,0,0,0,0,0,0,-3.3941,-3.3944,-3.4113,-3.4114,-3.4114,-3.4173,-3.4174,-3.4175,-3.4103,-3.4099,-3.4096,-3.4093,-3.416,-3.4165,-3.417,0,0,0,0,0,0,0,0,0,0,0,0,0,-3.401,-3.3945,-3.4113,-3.4085,-3.4083,-3.4173,-3.4174,-3.4175,-3.4103,-3.4099,-3.4095,-3.4091,-3.4158,-3.4164,-3.417,-3.4291,0,0,-3.419,-3.4193,0,0,0,0,0,0,0,0,-3.4006,-3.4016,-3.4089,-3.4087,-3.4085,-3.4126,-3.4138,-3.4214,-3.4104,-3.4096,-3.4094,-3.4089,-3.4153,-3.4159,-3.418,-3.4294,-3.4297,-3.4191,-3.4195,-3.4197,-3.4199,0,0,0,0,0,0,0,-3.4001,-3.4013,-3.4137,-3.409,-3.4088,-3.4072,-3.4077,-3.4152,-3.4147,-3.4096,-3.4091,-3.4099,-3.4151,-3.4174,-3.4181,-3.4298,-3.4191,-3.4196,-3.42,-3.4203,-3.4518,-3.4523,0,0,0,0,0,0,-3.3999,-3.401,-3.4135,-3.4139,-3.4035,-3.4078,-3.4084,-3.4117,-3.4146,-3.4146,-3.4103,-3.4096,-3.4165,-3.4173,-3.4183,-3.4328,-3.4197,-3.4203,-3.4207,-3.4514,-3.4519,-3.4524,0,0,0,0,0,0,-3.3996,-3.4011,-3.4133,-3.4073,-3.4087,-3.4085,-3.4123,-3.4121,-3.4143,-3.415,-3.4149,-3.4126,-3.4162,-3.4174,-3.4265,-3.433,-3.4206,-3.4212,-3.4508,-3.4515,-3.4522,-3.4619,0,0,0,0,0,0,-3.3991,-3.401,-3.4054,-3.4074,-3.4091,-3.4212,-3.4127,-3.4125,-3.4154,-3.4145,-3.4172,-3.4173,-3.416,-3.4256,-3.4272,-3.4336,-3.4217,-3.4503,-3.4512,-3.452,-3.461,-3.4628,-3.4644,0,0,0,0,0,-3.3985,-3.408,-3.4057,-3.4073,-3.4146,-3.4216,-3.4226,-3.4207,-3.4159,-3.4205,-3.421,-3.4172,-3.432,-3.4266,-3.4283,-3.435,-3.4499,-3.4509,-3.4519,-3.4602,-3.4625,-3.4643,0,0,0,0,0,0,-3.4069,-3.4082,-3.4057,-3.416,-3.4188,-3.4204,-3.4261,-3.4231,-3.4273,-3.4264,-3.4241,-3.4248,-3.4345,-3.4357,-3.4297,-3.447,-3.4402,-3.4416,-3.4459,-3.448,-3.4497,-3.4493,-3.4222,0,0,0,0,0,-3.4099,-3.4153,-3.4162,-3.4253,-3.4268,-3.4262,-3.4292,-3.4276,-3.4304,-3.4315,-3.4327,-3.4357,-3.441,-3.4446,-3.4495,-3.4611,-3.4618,-3.4666,-3.4683,-3.4697,-3.471,-3.4775,-3.4797,-3.4558,-3.4557,-3.4557,0,0,-3.4163,-3.4177,-3.4212,-3.4271,-3.429,-3.4349,-3.4273,-3.4337,-3.4382,-3.4325,-3.4412,-3.4422,-3.4454,-3.4559,-3.4606,-3.4572,-3.4777,-3.471,-3.4721,-3.4726,-3.4788,-3.481,-3.4831,-3.4564,-3.4563,-3.4562,0,0,-3.4309,-3.4324,-3.4402,-3.4423,-3.4452,-3.4448,-3.4467,-3.4488,-3.4492,-3.4579,-3.4539,-3.4592,-3.4684,-3.4709,-3.4734,-3.4892,-3.486,-3.4909,-3.4997,-3.5061,-3.508,-3.5097,-3.5155,-3.5176,-3.4921,-3.4921,-3.4922,0,-3.4385,-3.447,-3.4447,-3.4515,-3.4543,-3.4494,-3.4574,-3.4596,-3.4641,-3.4663,-3.4623,-3.4739,-3.4757,-3.4868,-3.4907,-3.4928,-3.4951,-3.4906,-3.5079,-3.5095,-3.5111,-3.5166,-3.5188,-3.4927,-3.4927,-3.4926,-3.4926,0,-3.4563,-3.4623,-3.4683,-3.4727,-3.4761,-3.4835,-3.4826,-3.4864,-3.4845,-3.4846,-3.4936,-3.4956,-3.501,-3.5035,-3.5017,-3.5145,-3.5123,-3.5082,-3.5012,-3.514,-3.5192,-3.5213,-3.4936,-3.4934,-3.4932,-3.493,0,0,-3.4763,-3.4794,-3.4816,-3.4837,-3.4866,-3.4914,-3.4987,-3.5038,-3.5072,-3.5105,-3.5168,-3.5248,-3.521,-3.5238,-3.5223,-3.5279,-3.5406,-3.5231,-3.5232,-3.5265,-3.5551,-3.5583,-3.5608,-3.5384,-3.5388,-3.5392,-3.5549,0,-3.4911,-3.5036,-3.5018,-3.5139,-3.5196,-3.5151,-3.5215,-3.5242,-3.5245,-3.5296,-3.5299,-3.5357,-3.5302,-3.5319,-3.5372,-3.5379,-3.5464,-3.5368,-3.5445,-3.5448,-3.544,-3.5635,-3.5669,-3.5816,-3.5569,-3.5573,-3.5575,0,-3.51,-3.514,-3.5266,-3.5289,-3.5312,-3.537,-3.5417,-3.5465,-3.5495,-3.5494,-3.5526,-3.5502,-3.5578,-3.5506,-3.5612,-3.5548,-3.5578,-3.5587,-3.5592,-3.56,-3.552,-3.565,-3.5863,-3.5886,-3.5607,-3.5604,-3.5602,0,-3.5236,-3.5321,-3.5408,-3.5427,-3.5455,-3.5497,-3.5512,-3.5537,-3.557,-3.5612,-3.5633,-3.5684,-3.5712,-3.5753,-3.5744,-3.5692,-3.5853,-3.578,-3.5856,-3.5857,-3.5893,-3.5891,-3.6116,-3.5911,-3.591,-3.591,-3.5909,0,-3.5404,-3.5484,-3.547,-3.5524,-3.5613,-3.5593,-3.5682,-3.5691,-3.5715,-3.5772,-3.5736,-3.5791,-3.5775,-3.5829,-3.5823,-3.5913,-3.5926,-3.5929,-3.5926,-3.5933,-3.5933,-3.5954,-3.5944,-3.5916,-3.5914,-3.5913,-3.5912,0,-3.5571,-3.5565,-3.5657,-3.5677,-3.5684,-3.5749,-3.5767,-3.5819,-3.5819,-3.5892,-3.5908,-3.5909,-3.5972,-3.5967,-3.6037,-3.6033,-3.6145,-3.613,-3.6135,-3.6132,-3.621,-3.6203,-3.6457,-3.649,-3.6261,-3.6264,-3.6265,0,-3.568,-3.574,-3.5766,-3.5801,-3.5818,-3.5874,-3.5907,-3.5891,-3.5927,-3.5967,-3.6016,-3.6074,-3.6121,-3.6223,-3.6232,-3.6287,-3.6274,-3.6359,-3.6282,-3.6287,-3.6278,-3.6275,-3.6282,-3.6375,-3.6377,-3.6379,-3.6381,0,-3.5873,-3.5867,-3.5916,-3.5964,-3.6005,-3.6042,-3.6076,-3.6107,-3.6094,-3.6137,-3.62,-3.6236,-3.6308,-3.6369,-3.6421,-3.6437,-3.6409,-3.6405,-3.6426,-3.6434,-3.6435,-3.6438,-3.6178,-3.64,-3.6398,-3.6396,-3.6395,-3.6395,-3.6016,-3.6068,-3.6095,-3.6151,-3.6175,-3.6208,-3.6258,-3.6265,-3.6317,-3.6373,-3.6361,-3.6432,-3.6464,-3.6531,-3.6553,-3.661,-3.658,-3.661,-3.6618,-3.6626,-3.6636,-3.6425,-3.662,-3.6619,-3.6619,-3.6618,-3.6618,0,-3.6209,-3.6224,-3.6276,-3.6324,-3.6369,-3.6336,-3.6373,-3.6413,-3.6476,-3.6507,-3.6553,-3.6627,-3.6686,-3.67,-3.6757,-3.68,-3.6789,-3.6816,-3.6814,-3.6819,-3.6658,-3.6635,-3.6825,-3.6825,-3.6825,-3.6825,-3.6825,-3.6825,-3.6315,-3.6403,-3.6401,-3.6501,-3.6516,-3.6585,-3.6609,-3.664,-3.6665,-3.6749,-3.6797,-3.6805,-3.683,-3.6889,-3.6942,-3.6945,-3.6969,-3.7002,-3.7,-3.685,-3.683,-3.681,-3.6788,-3.7007,-3.7007,-3.7156,-3.7157,-3.7158]},{"header":{"parameterUnit":"m.s-1","parameterCategory":1,"la1":30.2991,"la2":30.254,"lo1":-89.0895,"lo2":-89.0444,"dy":0.0017,"dx":0.0017,"nx":28,"ny":28,"refTime":"2023-10-04T03:00:00:Z","depth":0,"parameterNumber":3,"parameterNumberName":"V-component_of_WINDS"},"data":[0,0,0,0,0,0,0,0,0,0,0,0,0,0,0,0,0,0,0,0,0,0,0,0,0,0,0,0,0,0,0,0,0,0,0,0,0,0,0,0,0,0,0,0,0,0,0,0,0,0,0,0,0,0,0,0,0,0,-0.9831,-0.983,0,-0.9784,-0.9784,-0.9783,-0.9728,-0.9728,-0.9727,-0.9726,-0.9678,-0.9678,-0.9677,0,0,0,0,0,0,0,0,0,0,0,0,0,-0.987,-0.987,-0.9831,-0.983,-0.9829,-0.9784,-0.9784,-0.9783,-0.9729,-0.9728,-0.9727,-0.9726,-0.9679,-0.9678,-0.9677,0,0,0,0,0,0,0,0,0,0,0,0,0,-0.9842,-0.987,-0.9831,-0.9797,-0.9793,-0.9784,-0.9784,-0.9783,-0.9729,-0.9728,-0.9726,-0.9725,-0.9679,-0.9678,-0.9677,-0.9698,0,0,-0.9675,-0.9675,0,0,0,0,0,0,0,0,-0.9843,-0.984,-0.9802,-0.9799,-0.9795,-0.9761,-0.978,-0.9754,-0.9729,-0.9753,-0.9726,-0.9724,-0.9707,-0.9704,-0.9698,-0.9696,-0.9694,-0.9675,-0.9675,-0.9674,-0.9674,0,0,0,0,0,0,0,-0.9845,-0.9842,-0.9812,-0.9802,-0.9798,-0.9783,-0.9778,-0.9775,-0.9738,-0.9751,-0.9747,-0.9742,-0.9705,-0.9699,-0.9696,-0.9693,-0.9675,-0.9674,-0.9674,-0.9674,-0.9702,-0.9703,0,0,0,0,0,0,-0.9853,-0.9844,-0.9814,-0.9811,-0.9817,-0.9784,-0.9778,-0.9773,-0.9738,-0.9731,-0.9743,-0.974,-0.97,-0.9697,-0.9694,-0.9714,-0.9674,-0.9674,-0.9673,-0.9701,-0.9703,-0.9704,0,0,0,0,0,0,-0.9854,-0.985,-0.9816,-0.9826,-0.9821,-0.9784,-0.978,-0.9773,-0.9767,-0.9732,-0.9725,-0.9744,-0.9699,-0.9695,-0.9697,-0.9712,-0.9673,-0.9673,-0.97,-0.9702,-0.9703,-0.9756,0,0,0,0,0,0,-0.9855,-0.9851,-0.9859,-0.9827,-0.982,-0.982,-0.9781,-0.9773,-0.9766,-0.9761,-0.9731,-0.9724,-0.9698,-0.9698,-0.9696,-0.971,-0.9672,-0.9698,-0.9701,-0.9703,-0.9752,-0.9759,-0.9765,0,0,0,0,0,-0.9857,-0.9876,-0.986,-0.9857,-0.983,-0.9821,-0.9817,-0.9786,-0.9767,-0.9774,-0.9751,-0.9725,-0.9711,-0.9699,-0.9696,-0.971,-0.9697,-0.97,-0.9703,-0.975,-0.9758,-0.9764,0,0,0,0,0,0,-0.9912,-0.9872,-0.9853,-0.9863,-0.9845,-0.9811,-0.982,-0.9796,-0.9784,-0.978,-0.9742,-0.9735,-0.9741,-0.9726,-0.9713,-0.9727,-0.97,-0.9702,-0.9737,-0.9744,-0.975,-0.9753,-0.9671,0,0,0,0,0,-0.9925,-0.9922,-0.9886,-0.9898,-0.9891,-0.9857,-0.9852,-0.9829,-0.981,-0.9802,-0.978,-0.9762,-0.9752,-0.9747,-0.9737,-0.975,-0.9741,-0.9758,-0.9764,-0.9769,-0.9771,-0.9774,-0.9781,-0.9713,-0.9713,-0.9713,0,0,-0.9953,-0.993,-0.9931,-0.9909,-0.9893,-0.9889,-0.9851,-0.9849,-0.9846,-0.9802,-0.9801,-0.9784,-0.9761,-0.9767,-0.9769,-0.9755,-0.9788,-0.9772,-0.9777,-0.9776,-0.9778,-0.9784,-0.979,-0.9715,-0.9714,-0.9714,0,0,-1.0001,-0.9984,-0.9992,-0.9976,-0.9952,-0.9928,-0.993,-0.9899,-0.9886,-0.9884,-0.9851,-0.9846,-0.9832,-0.9816,-0.9806,-0.9846,-0.9821,-0.9843,-0.9875,-0.9879,-0.9884,-0.9889,-0.9901,-0.9906,-0.9846,-0.9846,-0.9846,0,-1.0039,-1.0032,-0.9998,-0.9998,-0.9989,-0.9948,-0.9954,-0.994,-0.9915,-0.9909,-0.9893,-0.9872,-0.9854,-0.9855,-0.9865,-0.9859,-0.9858,-0.9847,-0.9886,-0.989,-0.9894,-0.9905,-0.991,-0.9849,-0.9849,-0.9848,-0.9848,0,-1.0078,-1.0074,-1.0083,-1.0058,-1.0049,-1.0052,-1.0018,-1.0014,-0.9991,-0.997,-0.9967,-0.9944,-0.9927,-0.9926,-0.9905,-0.9923,-0.9915,-0.9893,-0.9865,-0.9904,-0.9914,-0.9918,-0.9853,-0.9852,-0.9851,-0.985,0,0,-1.0161,-1.0116,-1.012,-1.0107,-1.0076,-1.0072,-1.0072,-1.0055,-1.0051,-1.0034,-1.0032,-1.002,-0.9999,-0.9988,-0.9964,-0.9967,-0.9998,-0.9945,-0.9944,-0.9954,-1.0014,-1.003,-1.0036,-0.9981,-0.9981,-0.9982,-1.0016,0,-1.0203,-1.0201,-1.017,-1.0177,-1.0171,-1.0132,-1.0131,-1.0112,-1.0091,-1.0083,-1.0059,-1.0051,-1.0025,-1.0017,-1.0018,-0.9994,-1.0009,-0.9991,-0.9978,-0.9978,-0.9984,-1.0041,-1.0059,-1.0092,-1.002,-1.002,-1.0021,0,-1.0252,-1.0237,-1.0243,-1.021,-1.0206,-1.0207,-1.0188,-1.0181,-1.0157,-1.0141,-1.0128,-1.01,-1.0097,-1.0071,-1.0064,-1.0053,-1.0045,-1.0032,-1.0032,-1.0029,-1.0001,-1.0039,-1.0102,-1.0106,-1.0027,-1.0026,-1.0026,0,-1.031,-1.0291,-1.0292,-1.0282,-1.0244,-1.0245,-1.0229,-1.0204,-1.0195,-1.0178,-1.0172,-1.0155,-1.0146,-1.0132,-1.01,-1.0085,-1.0097,-1.0069,-1.0083,-1.0083,-1.0087,-1.0087,-1.0148,-1.0084,-1.0084,-1.0084,-1.0083,0,-1.036,-1.0365,-1.0317,-1.0318,-1.0321,-1.0285,-1.0289,-1.0269,-1.0247,-1.0241,-1.0206,-1.0202,-1.016,-1.0151,-1.0126,-1.0123,-1.0119,-1.0105,-1.0099,-1.0108,-1.011,-1.0102,-1.0099,-1.0085,-1.0085,-1.0084,-1.0084,0,-1.0426,-1.0395,-1.0392,-1.0356,-1.0346,-1.0351,-1.0319,-1.0317,-1.0293,-1.0287,-1.0283,-1.0245,-1.0232,-1.0199,-1.0177,-1.016,-1.0164,-1.0152,-1.0172,-1.0167,-1.0182,-1.0181,-1.024,-1.0246,-1.0179,-1.018,-1.018,0,-1.046,-1.0462,-1.0426,-1.0419,-1.0405,-1.0396,-1.0386,-1.0349,-1.034,-1.0312,-1.0313,-1.0297,-1.0282,-1.0262,-1.0232,-1.0215,-1.0201,-1.0223,-1.0199,-1.0207,-1.02,-1.02,-1.0199,-1.0229,-1.023,-1.0231,-1.0231,0,-1.0522,-1.0506,-1.0493,-1.0475,-1.0464,-1.0448,-1.043,-1.0426,-1.0385,-1.0376,-1.0362,-1.035,-1.0327,-1.0311,-1.0288,-1.027,-1.0243,-1.0239,-1.0241,-1.0251,-1.0262,-1.0254,-1.0185,-1.0238,-1.0237,-1.0237,-1.0236,-1.0236,-1.0572,-1.0571,-1.0545,-1.0532,-1.0514,-1.0497,-1.0493,-1.0468,-1.0455,-1.0433,-1.0412,-1.0399,-1.0373,-1.034,-1.0324,-1.0312,-1.0298,-1.0302,-1.0303,-1.0304,-1.0307,-1.0264,-1.0308,-1.0308,-1.0308,-1.0307,-1.0307,0,-1.0631,-1.0612,-1.06,-1.0575,-1.0564,-1.0539,-1.0517,-1.0509,-1.0498,-1.0476,-1.0462,-1.0444,-1.0427,-1.0395,-1.0376,-1.0372,-1.0359,-1.0368,-1.0368,-1.0364,-1.0322,-1.0321,-1.0379,-1.0379,-1.0379,-1.0379,-1.0379,-1.0379,-1.0661,-1.0658,-1.0638,-1.0626,-1.0606,-1.0593,-1.0582,-1.0566,-1.0548,-1.053,-1.0515,-1.0495,-1.0468,-1.0445,-1.0428,-1.0419,-1.0413,-1.0426,-1.0412,-1.0374,-1.0367,-1.0361,-1.036,-1.0425,-1.0425,-1.0455,-1.0455,-1.0456]}]]